| time (UTC) | temp F | wind direction | speed knots | gust knots | rain 1hr in | rain 24hr in | rain mn in | humidity % | barometer mb |
| 20260507045344 | 59 | 108 | 6.1 | 7.8 | 0.00 | 0.00 | 0.00 | 74 | 986.9 |
| 20260507044844 | 59 | 86 | 5.2 | 7.8 | 0.00 | 0.00 | 0.00 | 73 | 987.0 |
| 20260507044344 | 59 | 102 | 3.5 | 6.1 | 0.00 | 0.00 | 0.00 | 74 | 987.1 |
| 20260507043843 | 58 | 91 | 2.6 | 5.2 | 0.00 | 0.00 | 0.00 | 74 | 987.1 |
| 20260507043343 | 58 | 99 | 2.6 | 5.2 | 0.00 | 0.00 | 0.00 | 74 | 987.3 |
| 20260507042843 | 58 | 97 | 2.6 | 4.3 | 0.00 | 0.00 | 0.00 | 74 | 987.3 |
| 20260507042343 | 58 | 146 | 4.3 | 6.1 | 0.00 | 0.00 | 0.00 | 74 | 987.2 |
| 20260507041842 | 57 | 113 | 5.2 | 7.8 | 0.00 | 0.00 | 0.00 | 74 | 987.0 |
| 20260507041342 | 57 | 97 | 7.0 | 8.7 | 0.00 | 0.00 | 0.00 | 75 | 987.0 |
| 20260507040842 | 57 | 91 | 7.0 | 10.4 | 0.00 | 0.00 | 0.00 | 76 | 986.8 |
| 20260507040341 | 57 | 98 | 4.3 | 9.6 | 0.00 | 0.00 | 0.00 | 75 | 986.7 |
| 20260507035841 | 57 | 92 | 1.7 | 10.4 | 0.00 | 0.00 | 0.00 | 74 | 986.8 |
| 20260507035341 | 57 | 101 | 0.9 | 2.6 | 0.00 | 0.00 | 0.00 | 74 | 986.8 |
| 20260507034841 | 57 | 104 | 2.6 | 5.2 | 0.00 | 0.00 | 0.00 | 74 | 986.8 |
| 20260507034340 | 57 | 110 | 3.5 | 7.8 | 0.00 | 0.00 | 0.00 | 74 | 986.9 |
| 20260507033840 | 57 | 122 | 3.5 | 5.2 | 0.00 | 0.00 | 0.00 | 74 | 986.8 |
| 20260507033340 | 57 | 80 | 2.6 | 5.2 | 0.00 | 0.00 | 0.00 | 74 | 986.6 |
| 20260507032839 | 57 | 151 | 3.5 | 4.3 | 0.00 | 0.00 | 0.00 | 74 | 986.8 |
| 20260507032339 | 57 | 122 | 4.3 | 6.1 | 0.00 | 0.00 | 0.00 | 74 | 986.6 |
| 20260507031839 | 57 | 85 | 6.1 | 7.8 | 0.00 | 0.00 | 0.00 | 74 | 986.5 |
| 20260507031339 | 57 | 77 | 7.0 | 10.4 | 0.00 | 0.00 | 0.00 | 74 | 986.4 |
| 20260507030838 | 58 | 84 | 7.8 | 13.9 | 0.00 | 0.00 | 0.00 | 73 | 986.4 |
| 20260507030338 | 57 | 80 | 7.0 | 9.6 | 0.00 | 0.00 | 0.00 | 73 | 986.4 |
| 20260507025838 | 57 | 85 | 7.0 | 9.6 | 0.00 | 0.00 | 0.00 | 73 | 986.4 |
| 20260507025337 | 57 | 86 | 7.8 | 9.6 | 0.00 | 0.00 | 0.00 | 73 | 986.3 |
| 20260507024837 | 57 | 80 | 7.8 | 10.4 | 0.00 | 0.00 | 0.00 | 73 | 986.3 |
| 20260507024337 | 58 | 96 | 7.8 | 10.4 | 0.00 | 0.00 | 0.00 | 73 | 986.3 |
| 20260507023837 | 58 | 74 | 6.1 | 10.4 | 0.00 | 0.00 | 0.00 | 73 | 986.3 |
| 20260507023336 | 58 | 89 | 5.2 | 8.7 | 0.00 | 0.00 | 0.00 | 73 | 986.3 |
| 20260507022836 | 58 | 93 | 5.2 | 9.6 | 0.00 | 0.00 | 0.00 | 73 | 986.3 |
| 20260507022336 | 58 | 75 | 5.2 | 8.7 | 0.00 | 0.00 | 0.00 | 72 | 986.4 |
| 20260507021835 | 58 | 105 | 6.1 | 7.8 | 0.00 | 0.00 | 0.00 | 72 | 986.3 |
| 20260507021335 | 58 | 102 | 6.1 | 8.7 | 0.00 | 0.00 | 0.00 | 72 | 986.3 |
| 20260507020835 | 58 | 98 | 5.2 | 8.7 | 0.00 | 0.00 | 0.00 | 72 | 986.3 |
| 20260507020335 | 59 | 93 | 5.2 | 9.6 | 0.00 | 0.00 | 0.00 | 71 | 986.2 |
| 20260507015834 | 59 | 105 | 5.2 | 7.0 | 0.00 | 0.00 | 0.00 | 70 | 986.1 |
| 20260507015334 | 59 | 99 | 5.2 | 7.0 | 0.00 | 0.00 | 0.00 | 70 | 986.2 |
| 20260507014834 | 59 | 89 | 6.1 | 7.8 | 0.00 | 0.00 | 0.00 | 70 | 986.1 |
| 20260507014333 | 60 | 88 | 6.1 | 7.8 | 0.00 | 0.00 | 0.00 | 69 | 986.1 |
| 20260507013833 | 60 | 98 | 6.1 | 7.8 | 0.00 | 0.00 | 0.00 | 69 | 986.1 |
| 20260507013333 | 60 | 98 | 7.0 | 7.8 | 0.00 | 0.00 | 0.00 | 69 | 986.1 |
| 20260507012833 | 60 | 96 | 7.0 | 11.3 | 0.00 | 0.00 | 0.00 | 68 | 986.0 |
| 20260507012332 | 60 | 101 | 6.1 | 9.6 | 0.00 | 0.00 | 0.00 | 69 | 985.9 |
| 20260507011832 | 60 | 100 | 6.1 | 8.7 | 0.00 | 0.00 | 0.00 | 68 | 985.9 |
| 20260507011332 | 60 | 88 | 7.0 | 9.6 | 0.00 | 0.00 | 0.00 | 68 | 985.9 |
| 20260507010831 | 60 | 91 | 7.0 | 10.4 | 0.00 | 0.00 | 0.00 | 68 | 985.9 |
| 20260507010332 | 60 | 98 | 7.0 | 8.7 | 0.00 | 0.00 | 0.00 | 68 | 985.9 |
| 20260507005831 | 60 | 96 | 7.0 | 9.6 | 0.00 | 0.00 | 0.00 | 68 | 985.9 |
| 20260507005331 | 60 | 90 | 7.0 | 8.7 | 0.00 | 0.00 | 0.00 | 68 | 985.9 |
| 20260507004832 | 60 | 90 | 7.0 | 10.4 | 0.00 | 0.00 | 0.00 | 69 | 985.8 |
| 20260507004330 | 60 | 89 | 7.0 | 10.4 | 0.00 | 0.00 | 0.00 | 69 | 985.8 |
| 20260507003830 | 60 | 100 | 7.0 | 8.7 | 0.00 | 0.00 | 0.00 | 68 | 985.8 |
| 20260507003330 | 61 | 92 | 7.0 | 11.3 | 0.00 | 0.00 | 0.00 | 68 | 985.8 |
| 20260507002829 | 61 | 102 | 7.0 | 8.7 | 0.00 | 0.00 | 0.00 | 68 | 985.8 |
| 20260507002329 | 61 | 88 | 7.0 | 10.4 | 0.00 | 0.00 | 0.00 | 68 | 985.8 |
| 20260507001829 | 61 | 101 | 7.0 | 9.6 | 0.00 | 0.00 | 0.00 | 68 | 985.9 |
| 20260507001328 | 61 | 103 | 7.0 | 9.6 | 0.00 | 0.00 | 0.00 | 68 | 985.9 |
| 20260507000828 | 61 | 103 | 7.0 | 8.7 | 0.00 | 0.00 | 0.00 | 68 | 985.9 |
| 20260507000328 | 61 | 120 | 7.0 | 9.6 | 0.00 | 0.00 | 0.00 | 67 | 986.0 |
| 20260506235827 | 61 | 96 | 6.1 | 8.7 | 0.00 | 0.00 | 0.00 | 67 | 985.9 |
| 20260506235327 | 61 | 111 | 6.1 | 7.8 | 0.00 | 0.00 | 0.00 | 67 | 986.1 |
| 20260506234827 | 61 | 110 | 6.1 | 7.8 | 0.00 | 0.00 | 0.00 | 67 | 986.0 |
| 20260506234327 | 61 | 103 | 7.0 | 9.6 | 0.00 | 0.00 | 0.00 | 67 | 986.1 |
| 20260506233826 | 61 | 108 | 6.1 | 9.6 | 0.00 | 0.00 | 0.00 | 67 | 986.1 |
| 20260506233326 | 61 | 93 | 5.2 | 7.8 | 0.00 | 0.00 | 0.00 | 67 | 986.2 |
| 20260506232826 | 61 | 102 | 4.3 | 6.1 | 0.00 | 0.00 | 0.00 | 67 | 986.2 |
| 20260506232326 | 61 | 115 | 4.3 | 6.1 | 0.00 | 0.00 | 0.00 | 67 | 986.2 |
| 20260506231825 | 61 | 103 | 4.3 | 7.8 | 0.00 | 0.00 | 0.00 | 67 | 986.1 |
| 20260506231325 | 61 | 103 | 4.3 | 7.8 | 0.00 | 0.00 | 0.00 | 68 | 986.1 |
| 20260506230825 | 60 | 111 | 3.5 | 6.1 | 0.00 | 0.00 | 0.00 | 68 | 986.0 |
| 20260506230324 | 60 | 157 | 4.3 | 5.2 | 0.00 | 0.00 | 0.00 | 68 | 986.1 |
| 20260506225824 | 61 | 106 | 5.2 | 6.1 | 0.00 | 0.00 | 0.00 | 68 | 986.0 |
| 20260506225324 | 61 | 123 | 5.2 | 7.8 | 0.00 | 0.00 | 0.00 | 68 | 986.1 |
| 20260506224824 | 61 | 114 | 5.2 | 7.0 | 0.00 | 0.00 | 0.00 | 68 | 986.0 |
| 20260506224323 | 61 | 111 | 5.2 | 7.8 | 0.00 | 0.00 | 0.00 | 68 | 986.0 |
| 20260506223823 | 61 | 110 | 5.2 | 7.8 | 0.00 | 0.00 | 0.00 | 68 | 986.0 |
| 20260506223323 | 60 | 122 | 5.2 | 7.0 | 0.00 | 0.00 | 0.00 | 68 | 986.0 |
| 20260506222822 | 60 | 96 | 6.1 | 7.8 | 0.00 | 0.00 | 0.00 | 68 | 986.0 |
| 20260506222322 | 60 | 96 | 6.1 | 8.7 | 0.00 | 0.00 | 0.00 | 69 | 986.0 |
| 20260506221822 | 60 | 101 | 5.2 | 7.8 | 0.00 | 0.00 | 0.00 | 68 | 986.0 |
| 20260506221322 | 60 | 102 | 4.3 | 7.0 | 0.00 | 0.00 | 0.00 | 68 | 986.1 |
| 20260506220821 | 61 | 117 | 4.3 | 6.1 | 0.00 | 0.00 | 0.00 | 68 | 986.1 |
| 20260506220321 | 61 | 94 | 4.3 | 6.1 | 0.00 | 0.00 | 0.00 | 67 | 986.1 |
| 20260506215821 | 61 | 96 | 3.5 | 5.2 | 0.00 | 0.00 | 0.00 | 67 | 986.0 |
| 20260506215320 | 61 | 111 | 2.6 | 3.5 | 0.00 | 0.00 | 0.00 | 66 | 986.1 |
| 20260506214820 | 61 | 113 | 3.5 | 5.2 | 0.00 | 0.00 | 0.00 | 66 | 986.0 |
| 20260506214320 | 61 | 90 | 3.5 | 5.2 | 0.00 | 0.00 | 0.00 | 66 | 985.9 |
| 20260506213820 | 62 | 113 | 3.5 | 5.2 | 0.00 | 0.00 | 0.00 | 66 | 986.0 |
| 20260506213319 | 62 | 111 | 3.5 | 5.2 | 0.00 | 0.00 | 0.00 | 65 | 985.9 |
| 20260506212819 | 62 | 105 | 3.5 | 5.2 | 0.00 | 0.00 | 0.00 | 65 | 985.9 |
| 20260506211818 | 62 | 110 | 2.6 | 6.1 | 0.00 | 0.00 | 0.00 | 65 | 985.8 |
| 20260506211318 | 62 | 117 | 1.7 | 4.3 | 0.00 | 0.00 | 0.00 | 65 | 985.9 |
| 20260506210818 | 62 | 127 | 2.6 | 3.5 | 0.00 | 0.00 | 0.00 | 64 | 985.8 |
| 20260506210318 | 62 | 113 | 2.6 | 3.5 | 0.00 | 0.00 | 0.00 | 64 | 985.7 |
| 20260506205817 | 62 | 105 | 2.6 | 3.5 | 0.00 | 0.00 | 0.00 | 64 | 985.9 |
| 20260506205317 | 62 | 109 | 3.5 | 5.2 | 0.00 | 0.00 | 0.00 | 64 | 985.8 |
| 20260506204817 | 63 | 107 | 3.5 | 4.3 | 0.00 | 0.00 | 0.00 | 63 | 985.8 |
| 20260506204316 | 64 | 119 | 3.5 | 5.2 | 0.00 | 0.00 | 0.00 | 61 | 985.8 |
| 20260506203816 | 64 | 111 | 3.5 | 5.2 | 0.00 | 0.00 | 0.00 | 60 | 985.8 |
| 20260506203316 | 64 | 106 | 3.5 | 4.3 | 0.00 | 0.00 | 0.00 | 60 | 985.7 |
| 20260506202816 | 65 | 120 | 3.5 | 4.3 | 0.00 | 0.00 | 0.00 | 60 | 985.7 |
| 20260506202315 | 64 | 105 | 3.5 | 5.2 | 0.00 | 0.00 | 0.00 | 60 | 985.9 |
| 20260506201815 | 65 | 108 | 3.5 | 4.3 | 0.00 | 0.00 | 0.00 | 60 | 985.8 |
| 20260506201315 | 65 | 105 | 3.5 | 4.3 | 0.00 | 0.00 | 0.00 | 59 | 985.8 |
| 20260506200814 | 65 | 113 | 2.6 | 4.3 | 0.00 | 0.00 | 0.00 | 59 | 985.7 |
| 20260506200314 | 66 | 103 | 1.7 | 3.5 | 0.00 | 0.00 | 0.00 | 57 | 985.7 |
| 20260506195814 | 67 | 109 | 0.9 | 1.7 | 0.00 | 0.00 | 0.00 | 54 | 985.7 |
| 20260506195314 | 68 | 165 | 0.9 | 0.9 | 0.00 | 0.00 | 0.00 | 54 | 985.7 |
| 20260506194813 | 68 | 169 | 0.9 | 1.7 | 0.00 | 0.00 | 0.00 | 54 | 985.8 |
| 20260506194313 | 68 | 204 | 1.7 | 1.7 | 0.00 | 0.00 | 0.00 | 53 | 985.7 |
| 20260506193813 | 68 | 193 | 1.7 | 2.6 | 0.00 | 0.00 | 0.00 | 54 | 985.7 |
| 20260506193313 | 68 | 193 | 0.9 | 1.7 | 0.00 | 0.00 | 0.00 | 54 | 985.7 |
| 20260506192812 | 68 | 196 | 1.7 | 1.7 | 0.00 | 0.00 | 0.00 | 54 | 985.7 |
| 20260506192312 | 68 | 201 | 1.7 | 1.7 | 0.00 | 0.00 | 0.00 | 54 | 985.6 |
| 20260506191812 | 68 | 178 | 1.7 | 1.7 | 0.00 | 0.00 | 0.00 | 54 | 985.6 |
| 20260506191311 | 68 | 167 | 1.7 | 2.6 | 0.00 | 0.00 | 0.00 | 53 | 985.6 |
| 20260506190811 | 69 | 205 | 1.7 | 2.6 | 0.00 | 0.00 | 0.00 | 53 | 985.6 |
| 20260506190311 | 69 | 216 | 2.6 | 3.5 | 0.00 | 0.00 | 0.00 | 52 | 985.6 |
| 20260506185811 | 69 | 225 | 2.6 | 3.5 | 0.00 | 0.00 | 0.00 | 52 | 985.5 |
| 20260506185310 | 69 | 225 | 1.7 | 3.5 | 0.00 | 0.00 | 0.00 | 52 | 985.4 |
| 20260506184810 | 69 | 221 | 0.9 | 2.6 | 0.00 | 0.00 | 0.00 | 53 | 985.4 |
| 20260506184310 | 69 | 167 | 0.9 | 1.7 | 0.00 | 0.00 | 0.00 | 53 | 985.5 |
| 20260506183809 | 69 | 166 | 0.9 | 1.7 | 0.00 | 0.00 | 0.00 | 53 | 985.4 |
| 20260506183309 | 69 | 184 | 1.7 | 1.7 | 0.00 | 0.00 | 0.00 | 52 | 985.3 |
| 20260506182814 | 70 | 208 | 1.7 | 1.7 | 0.00 | 0.00 | 0.00 | 52 | 985.3 |
| 20260506182309 | 70 | 222 | 1.7 | 1.7 | 0.00 | 0.00 | 0.00 | 52 | 985.3 |
| 20260506181808 | 70 | 221 | 1.7 | 1.7 | 0.00 | 0.00 | 0.00 | 51 | 985.4 |
| 20260506181308 | 70 | 222 | 1.7 | 2.6 | 0.00 | 0.00 | 0.00 | 51 | 985.3 |
| 20260506180309 | 70 | 212 | 1.7 | 2.6 | 0.00 | 0.00 | 0.00 | 51 | 985.3 |
| 20260506175807 | 70 | 212 | 0.9 | 1.7 | 0.00 | 0.00 | 0.00 | 51 | 985.1 |
| 20260506175307 | 71 | 200 | 0.9 | 0.9 | 0.00 | 0.00 | 0.00 | 51 | 985.1 |
| 20260506174807 | 71 | 200 | 0.9 | 1.7 | 0.00 | 0.00 | 0.00 | 49 | 985.1 |
| 20260506174308 | 71 | 241 | 0.9 | 1.7 | 0.00 | 0.00 | 0.00 | 49 | 985.0 |
| 20260506173806 | 72 | 218 | 1.7 | 2.6 | 0.00 | 0.00 | 0.00 | 48 | 985.0 |
| 20260506173306 | 72 | 209 | 1.7 | 1.7 | 0.00 | 0.00 | 0.00 | 48 | 985.0 |
| 20260506172805 | 72 | 228 | 1.7 | 2.6 | 0.00 | 0.00 | 0.00 | 48 | 985.0 |
| 20260506172307 | 72 | 250 | 1.7 | 2.6 | 0.00 | 0.00 | 0.00 | 48 | 985.0 |
| 20260506171805 | 72 | 248 | 1.7 | 3.5 | 0.00 | 0.00 | 0.00 | 47 | 985.1 |
| 20260506171305 | 72 | 247 | 1.7 | 2.6 | 0.00 | 0.00 | 0.00 | 47 | 985.2 |
| 20260506170804 | 72 | 239 | 1.7 | 2.6 | 0.00 | 0.00 | 0.00 | 47 | 985.2 |
| 20260506170304 | 72 | 248 | 1.7 | 3.5 | 0.00 | 0.00 | 0.00 | 47 | 985.3 |
| 20260506165804 | 73 | 271 | 1.7 | 2.6 | 0.00 | 0.00 | 0.00 | 47 | 985.2 |
| 20260506164804 | 73 | 275 | 3.5 | 3.5 | 0.00 | 0.00 | 0.00 | 47 | 985.2 |
| 20260506164304 | 73 | 278 | 3.5 | 6.1 | 0.00 | 0.00 | 0.00 | 46 | 985.3 |
| 20260506163803 | 74 | 273 | 4.3 | 5.2 | 0.00 | 0.00 | 0.00 | 46 | 985.3 |
| 20260506162803 | 75 | 249 | 3.5 | 7.8 | 0.00 | 0.00 | 0.00 | 44 | 985.3 |
| 20260506162306 | 75 | 226 | 5.2 | 6.1 | 0.00 | 0.00 | 0.00 | 46 | 985.2 |
| 20260506161803 | 75 | 255 | 7.0 | 10.4 | 0.00 | 0.00 | 0.00 | 45 | 985.2 |
| 20260506161302 | 75 | 281 | 6.1 | 13.0 | 0.00 | 0.00 | 0.00 | 45 | 985.2 |
| 20260506160802 | 75 | 255 | 5.2 | 8.7 | 0.00 | 0.00 | 0.00 | 45 | 985.3 |
| 20260506155800 | 75 | 232 | 6.1 | 8.7 | 0.00 | 0.00 | 0.00 | 45 | 985.3 |
| 20260506155300 | 75 | 274 | 7.0 | 12.2 | 0.00 | 0.00 | 0.00 | 45 | 985.3 |
| 20260506154800 | 75 | 321 | 7.0 | 9.6 | 0.00 | 0.00 | 0.00 | 45 | 985.4 |
| 20260506152759 | 75 | 223 | 7.8 | 13.0 | 0.00 | 0.00 | 0.00 | 43 | 985.5 |
| 20260506152258 | 75 | 252 | 8.7 | 12.2 | 0.00 | 0.00 | 0.00 | 42 | 985.5 |
| 20260506151803 | 75 | 210 | 9.6 | 13.9 | 0.00 | 0.00 | 0.00 | 42 | 985.5 |
| 20260506151259 | 75 | 244 | 8.7 | 13.0 | 0.00 | 0.00 | 0.00 | 42 | 985.5 |
| 20260506150303 | 76 | 262 | 7.0 | 11.3 | 0.00 | 0.00 | 0.00 | 42 | 985.5 |
| 20260506145258 | 77 | 204 | 6.1 | 10.4 | 0.00 | 0.00 | 0.00 | 42 | 985.5 |
| 20260506142757 | 77 | 226 | 6.1 | 11.3 | 0.00 | 0.00 | 0.00 | 42 | 985.6 |
| 20260506142256 | 77 | 188 | 5.2 | 10.4 | 0.00 | 0.00 | 0.00 | 42 | 985.6 |
| 20260506141756 | 76 | 226 | 5.2 | 8.7 | 0.00 | 0.00 | 0.00 | 43 | 985.6 |
| 20260506140756 | 76 | 198 | 5.2 | 12.2 | 0.00 | 0.00 | 0.00 | 42 | 985.6 |
| 20260506140255 | 76 | 195 | 6.1 | 10.4 | 0.00 | 0.00 | 0.00 | 43 | 985.6 |
| 20260506135755 | 76 | 221 | 7.0 | 12.2 | 0.00 | 0.00 | 0.00 | 43 | 985.7 |
| 20260506133754 | 77 | 264 | 7.0 | 13.0 | 0.00 | 0.00 | 0.00 | 43 | 985.8 |
| 20260506133254 | 76 | 249 | 6.1 | 12.2 | 0.00 | 0.00 | 0.00 | 43 | 985.8 |
| 20260506132752 | 76 | 288 | 7.0 | 10.4 | 0.00 | 0.00 | 0.00 | 43 | 985.8 |
| 20260506132253 | 76 | 233 | 8.7 | 13.0 | 0.00 | 0.00 | 0.00 | 43 | 986.1 |
| 20260506131252 | 77 | 179 | 5.2 | 11.3 | 0.00 | 0.00 | 0.00 | 43 | 985.9 |
| 20260506130751 | 76 | 232 | 4.3 | 10.4 | 0.00 | 0.00 | 0.00 | 43 | 985.9 |
| 20260506130252 | 76 | 219 | 4.3 | 7.0 | 0.00 | 0.00 | 0.00 | 43 | 985.9 |
| 20260506125754 | 76 | 249 | 5.2 | 7.8 | 0.00 | 0.00 | 0.00 | 43 | 986.0 |
| 20260506124251 | 75 | 221 | 7.8 | 12.2 | 0.00 | 0.00 | 0.00 | 43 | 986.3 |
| 20260506123750 | 76 | 173 | 7.8 | 13.0 | 0.00 | 0.00 | 0.00 | 43 | 986.3 |
| 20260506123250 | 76 | 283 | 6.1 | 10.4 | 0.00 | 0.00 | 0.00 | 43 | 986.4 |
| 20260506122750 | 76 | 214 | 7.0 | 12.2 | 0.00 | 0.00 | 0.00 | 43 | 986.4 |
| 20260506122248 | 75 | 227 | 7.0 | 11.3 | 0.00 | 0.00 | 0.00 | 42 | 986.4 |
| 20260506121249 | 75 | 260 | 7.8 | 15.6 | 0.00 | 0.00 | 0.00 | 44 | 986.5 |
| 20260506120248 | 75 | 139 | 6.1 | 9.6 | 0.00 | 0.00 | 0.00 | 43 | 986.5 |
| 20260506114747 | 74 | 269 | 7.8 | 13.0 | 0.00 | 0.00 | 0.00 | 44 | 986.7 |
| 20260506114247 | 75 | 238 | 7.0 | 13.0 | 0.00 | 0.00 | 0.00 | 44 | 986.7 |
| 20260506113245 | 74 | 237 | 7.8 | 12.2 | 0.00 | 0.00 | 0.00 | 46 | 986.8 |
| 20260506112746 | 74 | 242 | 7.8 | 12.2 | 0.00 | 0.00 | 0.00 | 44 | 986.7 |
| 20260506111746 | 74 | 245 | 7.8 | 12.2 | 0.00 | 0.00 | 0.00 | 44 | 987.0 |
| 20260506111246 | 74 | 265 | 6.1 | 10.4 | 0.00 | 0.00 | 0.00 | 44 | 987.0 |
| 20260506105745 | 74 | 180 | 7.8 | 16.5 | 0.00 | 0.00 | 0.00 | 46 | 987.2 |
| 20260506104744 | 74 | 182 | 5.2 | 7.8 | 0.00 | 0.00 | 0.00 | 46 | 987.3 |
| 20260506103742 | 74 | 203 | 8.7 | 20.9 | 0.00 | 0.00 | 0.00 | 46 | 987.4 |
| 20260506103243 | 74 | 300 | 6.1 | 13.9 | 0.00 | 0.00 | 0.00 | 44 | 987.5 |
| 20260506102743 | 74 | 227 | 6.1 | 8.7 | 0.00 | 0.00 | 0.00 | 47 | 987.4 |
| 20260506102241 | 73 | 216 | 6.1 | 11.3 | 0.00 | 0.00 | 0.00 | 47 | 987.4 |
| 20260506101741 | 74 | 193 | 6.1 | 11.3 | 0.00 | 0.00 | 0.00 | 45 | 987.4 |
| 20260506101241 | 74 | 277 | 7.0 | 17.4 | 0.00 | 0.00 | 0.00 | 45 | 987.5 |
| 20260506100742 | 73 | 231 | 7.0 | 11.3 | 0.00 | 0.00 | 0.00 | 46 | 987.4 |
| 20260506100242 | 73 | 245 | 6.1 | 10.4 | 0.00 | 0.00 | 0.00 | 46 | 987.6 |
| 20260506095240 | 73 | 182 | 4.3 | 10.4 | 0.00 | 0.00 | 0.00 | 48 | 987.3 |
| 20260506094739 | 72 | 207 | 4.3 | 7.0 | 0.00 | 0.00 | 0.00 | 51 | 987.3 |
| 20260506094239 | 72 | 231 | 4.3 | 7.0 | 0.00 | 0.00 | 0.00 | 51 | 987.6 |
| 20260506093739 | 71 | 174 | 5.2 | 9.6 | 0.00 | 0.00 | 0.00 | 49 | 987.6 |
| 20260506093239 | 71 | 201 | 5.2 | 9.6 | 0.00 | 0.00 | 0.00 | 53 | 987.6 |
| 20260506092740 | 71 | 234 | 4.3 | 8.7 | 0.00 | 0.00 | 0.00 | 53 | 987.8 |
| 20260506092238 | 70 | 208 | 5.2 | 8.7 | 0.00 | 0.00 | 0.00 | 51 | 987.7 |
| 20260506091738 | 70 | 227 | 4.3 | 12.2 | 0.00 | 0.00 | 0.00 | 49 | 987.9 |
| 20260506091239 | 71 | 235 | 2.6 | 6.1 | 0.00 | 0.00 | 0.00 | 54 | 987.8 |
| 20260506090737 | 70 | 219 | 3.5 | 4.3 | 0.00 | 0.00 | 0.00 | 54 | 987.6 |
| 20260506090238 | 70 | 208 | 5.2 | 7.8 | 0.00 | 0.00 | 0.00 | 52 | 987.6 |
| 20260506085737 | 70 | 162 | 5.2 | 9.6 | 0.00 | 0.00 | 0.00 | 53 | 987.6 |
| 20260506085236 | 70 | 153 | 5.2 | 8.7 | 0.00 | 0.00 | 0.00 | 53 | 987.6 |
| 20260506084738 | 70 | 224 | 5.2 | 7.8 | 0.00 | 0.00 | 0.00 | 53 | 987.7 |
| 20260506084236 | 70 | 264 | 5.2 | 7.8 | 0.00 | 0.00 | 0.00 | 52 | 987.5 |
| 20260506083735 | 70 | 229 | 5.2 | 10.4 | 0.00 | 0.00 | 0.00 | 52 | 987.7 |
| 20260506083235 | 70 | 245 | 5.2 | 10.4 | 0.00 | 0.00 | 0.00 | 53 | 987.7 |
| 20260506082735 | 69 | 257 | 6.1 | 9.6 | 0.00 | 0.00 | 0.00 | 54 | 987.6 |
| 20260506082235 | 69 | 176 | 5.2 | 10.4 | 0.00 | 0.00 | 0.00 | 53 | 987.6 |
| 20260506081734 | 70 | 257 | 2.6 | 7.8 | 0.00 | 0.00 | 0.00 | 53 | 987.5 |
| 20260506080734 | 69 | 267 | 2.6 | 7.0 | 0.00 | 0.00 | 0.00 | 53 | 987.4 |
| 20260506080235 | 69 | 269 | 1.7 | 4.3 | 0.00 | 0.00 | 0.00 | 55 | 987.3 |
| 20260506073232 | 66 | 264 | 3.5 | 7.8 | 0.00 | 0.00 | 0.00 | 56 | 987.4 |
| 20260506072731 | 66 | 224 | 3.5 | 5.2 | 0.00 | 0.00 | 0.00 | 55 | 987.4 |
| 20260506072231 | 66 | 290 | 4.3 | 7.0 | 0.00 | 0.00 | 0.00 | 58 | 987.4 |
| 20260506071731 | 66 | 252 | 4.3 | 7.0 | 0.00 | 0.00 | 0.00 | 56 | 987.4 |
| 20260506070732 | 66 | 225 | 3.5 | 6.1 | 0.00 | 0.00 | 0.00 | 57 | 987.5 |
| 20260506070232 | 65 | 227 | 2.6 | 7.0 | 0.00 | 0.00 | 0.00 | 56 | 987.4 |
| 20260506062228 | 61 | 109 | 3.5 | 6.1 | 0.00 | 0.00 | 0.00 | 60 | 987.2 |
| 20260506061728 | 60 | 83 | 4.3 | 5.2 | 0.00 | 0.00 | 0.00 | 61 | 987.2 |
| 20260506061227 | 60 | 115 | 4.3 | 7.0 | 0.00 | 0.00 | 0.00 | 61 | 987.1 |
| 20260506060727 | 60 | 113 | 4.3 | 6.1 | 0.00 | 0.00 | 0.00 | 60 | 987.1 |
| 20260506060227 | 60 | 105 | 5.2 | 9.6 | 0.00 | 0.00 | 0.00 | 61 | 987.1 |
| 20260506051224 | 57 | 86 | 5.2 | 7.8 | 0.00 | 0.00 | 0.00 | 65 | 987.0 |
| 20260506050724 | 56 | 84 | 6.1 | 8.7 | 0.00 | 0.00 | 0.00 | 64 | 986.9 |
| 20260506050225 | 56 | 110 | 6.1 | 7.8 | 0.00 | 0.00 | 0.00 | 64 | 986.9 |